Weather History for Cody, WY

Change the Weather History Date:

Monday, April 9, 2012

  Actual Average Record
Temperature  
Mean Temperature 38 °F -  
Max Temperature 53 °F 55 °F 79 °F (1934)
Min Temperature 24 °F 29 °F 6 °F (1973)
Degree Days  
Heating Degree Days 26    
Moisture  
Dew Point 20 °F    
Average Humidity 51    
Maximum Humidity 80    
Minimum Humidity 28    
Precipitation  
Precipitation 0.00 in - - ()
Sea Level Pressure  
Sea Level Pressure 30.20 in    
Wind  
Wind Speed 4 mph (NE)    
Max Wind Speed 12 mph    
Max Gust Speed -    
Visibility 10 miles    
Events      
Averages and records for this station are not official NWS values.
T = Trace of Precipitation, MM = Missing Value Source: NWS Daily Summary

Daily Weather History Graph

Daily Weather History Graph

Search for Another Location

Airport:

Trip Planner

Search our weather history database for the weather conditions in past years. The results will help you decide how hot, cold, wet, or windy it might be!

Date:

Astronomy

Apr. 09, 2012 Rise Set
Actual Time 6:41 AM MDT 7:54 PM MDT
Civil Twilight 6:11 AM MDT 8:24 PM MDT
Nautical Twilight 5:35 AM MDT 9:00 PM MDT
Astronomical Twilight 4:57 AM MDT 9:38 PM MDT
Moon No Moon Rise 8:22 AM MDT (4/9)
Length of Visible Light 14h 12m
Length of Day
13h 12m
Waning Gibbous, 88% of the Moon is Illuminated
Apr 9
Waning Gibbous
Apr 13
Last Quarter
Apr 21
New
Apr 29
First Quarter
May 5
Full

Hourly Weather History & Observations

Time (MDT) Temp. Windchill Dew Point Humidity Pressure Visibility Wind Dir Wind Speed Gust Speed Precip Events Conditions
12:15 AM 30.2 °F 25.4 °F 15.8 °F 55% 30.25 in 10.0 mi South 4.6 mph - N/A   Clear
12:35 AM 30.2 °F 25.4 °F 17.6 °F 60% 30.25 in 10.0 mi South 4.6 mph - N/A   Clear
12:55 AM 33.8 °F 30.8 °F 19.4 °F 56% 30.25 in 10.0 mi South 3.5 mph - N/A   Clear
1:15 AM 33.8 °F - 21.2 °F 60% 30.26 in 10.0 mi Calm Calm - N/A   Clear
1:36 AM 28.4 °F 23.3 °F 17.6 °F 64% 30.26 in 10.0 mi SSE 4.6 mph - N/A   Clear
1:55 AM 33.8 °F 30.8 °F 21.2 °F 60% 30.26 in 10.0 mi ESE 3.5 mph - N/A   Clear
2:35 AM 28.4 °F 24.6 °F 17.6 °F 64% 30.26 in 10.0 mi SE 3.5 mph - N/A   Clear
2:55 AM 28.4 °F 22.2 °F 17.6 °F 64% 30.26 in 10.0 mi South 5.8 mph - N/A   Clear
3:35 AM 28.4 °F - 19.4 °F 69% 30.26 in 10.0 mi Calm Calm - N/A   Clear
3:55 AM 28.4 °F 24.6 °F 19.4 °F 69% 30.25 in 10.0 mi South 3.5 mph - N/A   Clear
4:15 AM 26.6 °F - 17.6 °F 69% 30.25 in 10.0 mi Calm Calm - N/A   Clear
4:35 AM 26.6 °F - 19.4 °F 74% 30.25 in 10.0 mi Calm Calm - N/A   Clear
4:55 AM 24.8 °F 20.5 °F 19.4 °F 80% 30.25 in 10.0 mi South 3.5 mph - N/A   Clear
5:15 AM 26.6 °F 22.6 °F 19.4 °F 74% 30.24 in 10.0 mi South 3.5 mph - N/A   Clear
5:35 AM 26.6 °F 22.6 °F 19.4 °F 74% 30.24 in 10.0 mi South 3.5 mph - N/A   Clear
5:55 AM 24.8 °F 19.1 °F 17.6 °F 74% 30.24 in 10.0 mi SSE 4.6 mph - N/A   Clear
6:15 AM 26.6 °F - 17.6 °F 69% 30.24 in 10.0 mi Calm Calm - N/A   Clear
6:35 AM 26.6 °F - 17.6 °F 69% 30.24 in 10.0 mi Calm Calm - N/A   Clear
6:55 AM 24.8 °F - 19.4 °F 80% 30.24 in 10.0 mi Calm Calm - N/A   Clear
7:15 AM 24.8 °F - 17.6 °F 74% 30.25 in 10.0 mi Calm Calm - N/A   Clear
7:35 AM 26.6 °F - 17.6 °F 69% 30.25 in 10.0 mi Calm Calm - N/A   Clear
7:55 AM 28.4 °F - 21.2 °F 74% 30.25 in 10.0 mi Calm Calm - N/A   Clear
8:15 AM 30.2 °F - 21.2 °F 69% 30.25 in 10.0 mi Calm Calm - N/A   Clear
8:35 AM 33.8 °F - 21.2 °F 60% 30.25 in 10.0 mi Calm Calm - N/A   Clear
8:55 AM 35.6 °F - 19.4 °F 52% 30.24 in 10.0 mi Calm Calm - N/A   Clear
9:15 AM 37.4 °F 34.9 °F 19.4 °F 48% 30.24 in 10.0 mi ENE 3.5 mph - N/A   Clear
9:35 AM 39.2 °F - 21.2 °F 49% 30.23 in 10.0 mi Calm Calm - N/A   Clear
9:55 AM 39.2 °F - 19.4 °F 45% 30.23 in 10.0 mi Calm Calm - N/A   Unknown
10:36 AM 41.0 °F 39.0 °F 21.2 °F 45% 30.23 in 10.0 mi North 3.5 mph - N/A   Unknown
10:55 AM 42.8 °F 40.1 °F 21.2 °F 42% 30.22 in 10.0 mi East 4.6 mph - N/A   Unknown
11:35 AM 44.6 °F 42.2 °F 19.4 °F 37% 30.22 in 10.0 mi NNE 4.6 mph - N/A   Unknown
11:55 AM 46.4 °F - 19.4 °F 34% 30.21 in 10.0 mi Calm Calm - N/A   Unknown
12:35 PM 48.2 °F - 19.4 °F 32% 30.20 in 10.0 mi NNW 5.8 mph - N/A   Unknown
1:15 PM 48.2 °F - 21.2 °F 34% 30.19 in 10.0 mi North 5.8 mph - N/A   Unknown
1:35 PM 51.8 °F - 21.2 °F 30% 30.18 in 10.0 mi NNE 4.6 mph - N/A   Unknown
1:55 PM 51.8 °F - 21.2 °F 30% 30.17 in 10.0 mi NNE 8.1 mph - N/A   Unknown
2:15 PM 53.6 °F - 21.2 °F 28% 30.17 in 10.0 mi NNE 8.1 mph - N/A   Unknown
2:35 PM 53.6 °F - 21.2 °F 28% 30.16 in 10.0 mi North 9.2 mph - N/A   Unknown
2:56 PM 53.6 °F - 21.2 °F 28% 30.16 in 10.0 mi North 5.8 mph - N/A   Unknown
3:15 PM 53.6 °F - 21.2 °F 28% 30.15 in 10.0 mi NE 6.9 mph - N/A   Unknown
4:15 PM 53.6 °F - 21.2 °F 28% 30.14 in 10.0 mi North 11.5 mph - N/A   Clear
4:35 PM 53.6 °F - 21.2 °F 28% 30.13 in 10.0 mi North 9.2 mph - N/A   Clear
4:56 PM 53.6 °F - 21.2 °F 28% 30.13 in 10.0 mi NNE 9.2 mph - N/A   Clear
5:35 PM 53.6 °F - 21.2 °F 28% 30.12 in 10.0 mi NNE 10.4 mph - N/A   Clear
6:35 PM 53.6 °F - 21.2 °F 28% 30.13 in 10.0 mi North 11.5 mph - N/A   Clear
6:56 PM 51.8 °F - 21.2 °F 30% 30.13 in 10.0 mi NNE 10.4 mph - N/A   Clear
7:36 PM 48.2 °F - 21.2 °F 34% 30.13 in 10.0 mi North 8.1 mph - N/A   Clear
8:15 PM 46.4 °F 43.5 °F 21.2 °F 37% 30.13 in 10.0 mi WNW 5.8 mph - N/A   Clear
8:36 PM 46.4 °F 45.2 °F 21.2 °F 37% 30.13 in 10.0 mi NW 3.5 mph - N/A   Clear
8:55 PM 44.6 °F 43.1 °F 23.0 °F 43% 30.14 in 10.0 mi WNW 3.5 mph - N/A   Clear
9:15 PM 44.6 °F 43.1 °F 23.0 °F 43% 30.15 in 10.0 mi WNW 3.5 mph - N/A   Clear
9:35 PM 44.6 °F 43.1 °F 23.0 °F 43% 30.15 in 10.0 mi NW 3.5 mph - N/A   Clear
9:56 PM 42.8 °F - 21.2 °F 42% 30.15 in 10.0 mi Calm Calm - N/A   Clear
10:35 PM 41.0 °F - 24.8 °F 53% 30.14 in 10.0 mi Calm Calm - N/A   Clear
10:55 PM 37.4 °F 34.9 °F 21.2 °F 52% 30.14 in 10.0 mi South 3.5 mph - N/A   Clear
11:15 PM 39.2 °F 37.0 °F 23.0 °F 52% 30.14 in 10.0 mi South 3.5 mph - N/A   Clear
11:55 PM 37.4 °F - 24.8 °F 60% 30.14 in 10.0 mi Calm Calm - N/A   Clear